TimeEDT,TemperatureF,Dew PointF,Humidity,Sea Level PressureIn,VisibilityMPH,Wind Direction,Wind SpeedMPH,Gust SpeedMPH,PrecipitationIn,Events,Conditions,WindDirDegrees,DateUTC
12:53 AM,69.1,64.0,84,29.61,10.0,Calm,Calm,-,N/A,,Clear,0,2013-06-28 04:53:00
1:53 AM,68.0,64.0,87,29.63,10.0,NE,10.4,-,N/A,,Clear,40,2013-06-28 05:53:00
2:20 AM,69.8,64.4,83,29.66,10.0,NE,3.5,-,N/A,,Mostly Cloudy,40,2013-06-28 06:20:00
2:22 AM,69.8,64.4,83,29.66,10.0,NNE,4.6,-,N/A,,Mostly Cloudy,30,2013-06-28 06:22:00
2:37 AM,69.8,64.4,83,29.66,10.0,NNE,3.5,-,N/A,,Overcast,30,2013-06-28 06:37:00
2:53 AM,69.1,64.0,84,29.63,10.0,Calm,Calm,-,N/A,,Mostly Cloudy,0,2013-06-28 06:53:00
3:01 AM,68.0,64.4,88,29.66,10.0,Calm,Calm,-,N/A,,Mostly Cloudy,0,2013-06-28 07:01:00
3:53 AM,66.9,63.0,87,29.62,9.0,Calm,Calm,-,N/A,,Partly Cloudy,0,2013-06-28 07:53:00
4:53 AM,66.9,63.0,87,29.61,10.0,NW,4.6,-,N/A,,Mostly Cloudy,310,2013-06-28 08:53:00
5:53 AM,66.0,62.1,87,29.60,10.0,WNW,4.6,-,N/A,,Scattered Clouds,290,2013-06-28 09:53:00
6:53 AM,68.0,63.0,84,29.60,10.0,WNW,4.6,-,N/A,,Clear,290,2013-06-28 10:53:00
7:39 AM,69.8,62.6,78,29.62,10.0,NW,9.2,-,N/A,,Scattered Clouds,320,2013-06-28 11:39:00
7:49 AM,68.0,62.6,83,29.62,10.0,NW,8.1,-,N/A,,Mostly Cloudy,320,2013-06-28 11:49:00
7:53 AM,68.0,63.0,84,29.60,10.0,NW,6.9,-,N/A,,Mostly Cloudy,320,2013-06-28 11:53:00
8:20 AM,69.8,62.6,78,29.62,10.0,NW,3.5,-,N/A,,Overcast,320,2013-06-28 12:20:00
8:45 AM,69.8,64.4,83,29.61,10.0,NW,8.1,-,N/A,,Mostly Cloudy,320,2013-06-28 12:45:00
8:53 AM,70.0,64.0,81,29.59,10.0,NW,6.9,-,N/A,,Mostly Cloudy,320,2013-06-28 12:53:00
9:17 AM,71.6,64.4,78,29.61,10.0,NW,5.8,-,N/A,,Mostly Cloudy,320,2013-06-28 13:17:00
9:32 AM,71.6,64.4,78,29.60,10.0,West,3.5,-,N/A,,Overcast,280,2013-06-28 13:32:00
9:53 AM,73.0,64.0,73,29.58,10.0,West,6.9,-,N/A,,Overcast,270,2013-06-28 13:53:00
10:53 AM,77.0,64.0,64,29.57,10.0,West,8.1,-,N/A,,Clear,280,2013-06-28 14:53:00
11:53 AM,79.0,63.0,58,29.56,10.0,Variable,6.9,-,N/A,,Scattered Clouds,0,2013-06-28 15:53:00
12:08 PM,78.8,62.6,57,29.58,10.0,WNW,9.2,-,N/A,,Mostly Cloudy,300,2013-06-28 16:08:00
12:22 PM,80.6,62.6,54,29.57,10.0,West,10.4,-,N/A,,Mostly Cloudy,280,2013-06-28 16:22:00
12:53 PM,68.0,57.9,70,29.56,4.0,NW,16.1,43.7,0.11,Rain,Heavy Rain,320,2013-06-28 16:53:00
1:53 PM,68.0,61.0,78,29.56,10.0,WNW,6.9,-,0.10,Rain,Light Rain,290,2013-06-28 17:53:00
2:53 PM,73.9,63.0,68,29.55,10.0,NW,8.1,-,0.01,,Clear,310,2013-06-28 18:53:00
3:53 PM,79.0,64.9,62,29.52,10.0,NNW,8.1,-,N/A,,Clear,340,2013-06-28 19:53:00
4:53 PM,79.0,62.1,56,29.52,10.0,NW,9.2,-,N/A,,Clear,320,2013-06-28 20:53:00
5:53 PM,71.1,62.1,73,29.54,10.0,North,4.6,-,0.01,Rain,Light Rain,10,2013-06-28 21:53:00
6:53 PM,70.0,62.1,76,29.57,10.0,WSW,5.8,-,0.00,,Overcast,250,2013-06-28 22:53:00
7:53 PM,71.1,61.0,70,29.57,10.0,West,12.7,-,N/A,,Partly Cloudy,280,2013-06-28 23:53:00
8:53 PM,70.0,60.1,71,29.56,10.0,WNW,8.1,-,N/A,,Scattered Clouds,290,2013-06-29 00:53:00
9:53 PM,68.0,61.0,78,29.57,10.0,WNW,5.8,-,N/A,,Partly Cloudy,300,2013-06-29 01:53:00
10:53 PM,66.9,61.0,81,29.56,10.0,Calm,Calm,-,N/A,,Clear,0,2013-06-29 02:53:00
11:53 PM,66.0,61.0,84,29.56,10.0,Calm,Calm,-,N/A,,Clear,0,2013-06-29 03:53:00